Total_Precipitation_Accumulation
0.02 0.12 0.20 0.47 0.70 0.24 0.02 0.02 0.03 0.04 0.10 0.17 0.16 0.20 0.15 0.38 0.40 0.37 0.02 0.03 0.03 0.08 0.16 0.28 0.23 0.04 0.05 0.11 0.16 0.07 0.12 0.35 0.55 0.44 0.21 0.11 0.12 0.20 0.20 0.11 0.10 0.15 0.35 0.24 0.05 0.02 0.02 0.02 0.01
0.09 0.15 0.29 0.65 0.28 0.05 0.03 0.01 0.02 0.02 0.04 0.07 0.11 0.11 0.10 0.12 0.02 0.03 0.01 0.04 0.06 0.06 0.10 0.09 0.27 0.23 0.12 0.08 0.01 0.00 0.04 0.39 0.39 0.44 0.41 0.34 0.26 0.26 0.15 0.12 0.20 0.23 0.13 0.05 0.04 0.03 0.02 0.02 0.02
0.14 0.22 0.36 0.87 0.13 0.03 0.05 0.00 0.02 0.03 0.02 0.00 0.00 0.01 0.00 0.00 0.00 0.01 0.01 0.02 0.07 0.07 0.11 0.18 0.34 0.27 0.23 0.12 0.09 0.02 0.12 0.25 0.23 0.43 0.43 0.43 0.42 0.25 0.28 0.26 0.14 0.10 0.10 0.11 0.08 0.08 0.04 0.03 0.04
0.22 0.30 0.35 0.41 0.10 0.00 0.01 0.00 0.04 0.02 0.00 0.00 0.00 0.00 0.00 0.00 0.00 0.01 0.01 0.01 0.06 0.08 0.19 0.58 0.43 0.33 0.25 0.26 0.25 0.10 0.12 0.28 0.29 0.40 0.35 0.41 0.66 0.56 0.45 0.31 0.15 0.07 0.05 0.03 0.05 0.05 0.03 0.01 0.03
0.12 0.32 1.65 0.53 0.03 0.00 0.00 0.03 0.04 0.02 0.00 0.00 0.00 0.00 0.01 0.01 0.01 0.02 0.02 0.03 0.03 0.12 0.20 0.49 0.75 0.49 0.40 0.34 0.32 0.23 0.15 0.18 0.26 0.38 0.66 0.59 0.63 0.66 0.51 0.18 0.05 0.04 0.01 0.00 0.00 0.01 0.00 0.00 0.00
0.24 0.95 2.23 1.55 0.23 0.00 0.00 0.01 0.00 0.00 0.00 0.00 0.00 0.00 0.03 0.03 0.04 0.04 0.01 0.01 0.01 0.06 0.16 0.30 1.04 1.21 0.77 0.43 0.32 0.22 0.21 0.17 0.29 0.50 0.82 0.47 0.43 0.59 0.37 0.15 0.03 0.01 0.00 0.01 0.05 0.01 0.00 0.00 0.00
0.41 0.91 0.69 0.90 0.48 0.02 0.00 0.00 0.00 0.00 0.00 0.00 0.00 0.00 0.03 0.05 0.04 0.01 0.00 0.00 0.00 0.00 0.05 0.18 0.54 1.22 1.05 0.51 0.56 0.34 0.24 0.29 0.39 0.60 0.74 0.62 0.46 0.26 0.12 0.09 0.04 0.00 0.00 0.00 0.01 0.00 0.00 0.00 0.00
1.02 1.27 0.23 0.54 0.67 0.19 0.00 0.00 0.00 0.00 0.00 0.00 0.00 0.00 0.01 0.00 0.00 0.00 0.00 0.00 0.00 0.05 0.09 0.17 0.37 0.81 1.06 0.53 0.89 0.61 0.51 0.33 0.43 0.54 0.45 0.35 0.15 0.13 0.09 0.03 0.00 0.00 0.00 0.00 0.00 0.00 0.00 0.00 0.00
0.13 0.66 0.58 0.42 0.47 0.12 0.01 0.00 0.00 0.00 0.00 0.00 0.00 0.00 0.00 0.00 0.00 0.00 0.00 0.00 0.01 0.02 0.05 0.09 0.24 0.34 0.47 0.58 0.58 0.39 0.34 0.37 0.30 0.29 0.20 0.17 0.11 0.11 0.06 0.00 0.00 0.00 0.00 0.00 0.00 0.00 0.00 0.00 0.00
0.20 0.81 0.55 0.93 0.46 0.04 0.01 0.00 0.00 0.00 0.00 0.00 0.00 0.00 0.00 0.00 0.00 0.01 0.01 0.01 0.01 0.02 0.04 0.04 0.13 0.13 0.16 0.36 0.41 0.31 0.33 0.36 0.33 0.17 0.05 0.07 0.14 0.01 0.00 0.00 0.00 0.00 0.00 0.00 0.00 0.00 0.00 0.01 0.08
0.15 0.46 0.51 1.31 0.33 0.06 0.01 0.00 0.00 0.00 0.00 0.00 0.00 0.00 0.00 0.00 0.00 0.00 0.00 0.01 0.02 0.03 0.02 0.00 0.04 0.09 0.08 0.19 0.10 0.12 0.17 0.08 0.01 0.01 0.03 0.03 0.04 0.00 0.01 0.01 0.00 0.00 0.00 0.00 0.00 0.00 0.04 0.09 0.07
0.20 0.26 0.24 0.32 0.07 0.07 0.10 0.03 0.00 0.02 0.00 0.00 0.00 0.00 0.00 0.00 0.01 0.00 0.00 0.03 0.02 0.01 0.01 0.00 0.01 0.08 0.07 0.01 0.00 0.02 0.20 0.14 0.02 0.00 0.00 0.00 0.00 0.00 0.00 0.02 0.07 0.04 0.02 0.02 0.09 0.01 0.03 0.08 0.08
0.16 0.52 0.28 0.38 0.47 0.26 0.08 0.03 0.00 0.00 0.00 0.00 0.00 0.00 0.00 0.01 0.08 0.01 0.04 0.05 0.01 0.02 0.00 0.01 0.00 0.05 0.04 0.02 0.01 0.01 0.08 0.05 0.01 0.00 0.00 0.01 0.01 0.03 0.08 0.06 0.20 0.47 0.09 0.06 0.07 0.02 0.04 0.05 0.11
0.14 0.10 0.19 0.34 0.74 0.38 0.26 0.10 0.02 0.00 0.00 0.00 0.00 0.00 0.00 0.00 0.05 0.02 0.05 0.02 0.01 0.03 0.01 0.01 0.00 0.00 0.01 0.02 0.03 0.01 0.05 0.02 0.01 0.00 0.00 0.02 0.04 0.08 0.12 0.29 0.15 0.72 0.42 0.05 0.03 0.02 0.03 0.04 0.16
0.04 0.07 0.21 0.20 0.26 0.60 0.59 0.62 0.22 0.01 0.00 0.00 0.00 0.00 0.00 0.00 0.00 0.01 0.02 0.00 0.00 0.00 0.00 0.00 0.00 0.00 0.00 0.01 0.02 0.00 0.00 0.00 0.00 0.00 0.00 0.01 0.09 0.24 0.32 0.45 0.27 0.10 0.03 0.01 0.01 0.04 0.05 0.10 0.11
0.19 0.22 0.49 0.29 0.04 0.19 0.47 1.46 0.59 0.02 0.00 0.00 0.00 0.00 0.00 0.01 0.00 0.02 0.01 0.00 0.00 0.00 0.01 0.00 0.00 0.00 0.00 0.00 0.02 0.02 0.03 0.01 0.01 0.00 0.00 0.01 0.15 0.03 0.15 0.48 0.09 0.02 0.03 0.02 0.03 0.03 0.09 0.14 0.09
0.67 0.18 0.27 0.31 0.03 0.17 0.22 0.58 0.18 0.03 0.01 0.01 0.01 0.00 0.01 0.08 0.11 0.00 0.00 0.00 0.00 0.00 0.00 0.00 0.00 0.00 0.00 0.01 0.03 0.22 0.03 0.02 0.02 0.00 0.00 0.00 0.01 0.04 0.12 0.39 0.04 0.01 0.03 0.06 0.07 0.05 0.07 0.07 0.09
1.15 0.17 0.06 0.14 0.06 0.19 0.21 0.07 0.02 0.04 0.09 0.04 0.01 0.01 0.01 0.09 0.06 0.02 0.00 0.00 0.01 0.00 0.01 0.00 0.00 0.00 0.00 0.02 0.05 0.16 0.02 0.02 0.02 0.00 0.00 0.00 0.00 0.00 0.01 0.03 0.01 0.00 0.01 0.01 0.00 0.00 0.00 0.03 0.02
0.17 0.24 0.07 0.03 0.00 0.18 0.16 0.03 0.00 0.00 0.03 0.08 0.01 0.02 0.01 0.02 0.09 0.13 0.02 0.00 0.00 0.00 0.00 0.00 0.00 0.00 0.00 0.00 0.00 0.03 0.02 0.02 0.01 0.00 0.00 0.00 0.01 0.00 0.02 0.02 0.03 0.00 0.00 0.00 0.00 0.00 0.00 0.00 0.00
0.01 0.04 0.08 0.06 0.03 0.24 0.24 0.21 0.02 0.00 0.02 0.00 0.01 0.01 0.06 0.01 0.07 0.07 0.04 0.03 0.00 0.00 0.00 0.00 0.00 0.00 0.00 0.00 0.00 0.00 0.01 0.02 0.01 0.01 0.02 0.00 0.00 0.00 0.02 0.01 0.00 0.00 0.00 0.00 0.00 0.00 0.00 0.00 0.01
0.00 0.00 0.01 0.04 0.09 0.22 0.38 0.28 0.15 0.06 0.08 0.03 0.05 0.08 0.02 0.10 0.08 0.02 0.03 0.07 0.11 0.02 0.00 0.00 0.00 0.00 0.00 0.00 0.00 0.00 0.01 0.01 0.08 0.09 0.01 0.00 0.01 0.00 0.00 0.00 0.00 0.00 0.00 0.01 0.00 0.00 0.02 0.03 0.01
0.00 0.00 0.00 0.01 0.08 0.42 0.09 0.53 0.35 0.10 0.09 0.04 0.00 0.07 0.03 0.07 0.18 0.04 0.01 0.03 0.26 0.17 0.00 0.00 0.00 0.00 0.00 0.00 0.00 0.01 0.01 0.04 0.09 0.03 0.02 0.00 0.00 0.00 0.00 0.00 0.00 0.00 0.00 0.01 0.00 0.00 0.02 0.06 0.02
0.00 0.00 0.00 0.06 0.21 0.05 0.01 0.04 0.21 0.06 0.05 0.01 0.01 0.00 0.00 0.02 0.02 0.07 0.21 0.16 0.10 0.08 0.03 0.00 0.00 0.00 0.01 0.00 0.04 0.08 0.02 0.05 0.12 0.06 0.06 0.02 0.01 0.00 0.00 0.00 0.00 0.00 0.02 0.03 0.07 0.08 0.07 0.06 0.03
0.00 0.00 0.00 0.10 0.11 0.02 0.01 0.00 0.00 0.04 0.22 0.54 0.08 0.00 0.00 0.01 0.05 0.21 0.20 0.16 0.14 0.04 0.09 0.06 0.00 0.01 0.01 0.00 0.03 0.07 0.10 0.12 0.33 0.14 0.06 0.03 0.01 0.00 0.00 0.00 0.04 0.06 0.08 0.07 0.11 0.17 0.12 0.07 0.04
0.00 0.00 0.00 0.05 0.05 0.06 0.03 0.03 0.00 0.00 0.01 0.10 0.03 0.06 0.05 0.01 0.02 0.10 0.06 0.19 0.08 0.15 0.03 0.04 0.03 0.01 0.00 0.00 0.00 0.03 0.09 0.12 0.19 0.09 0.02 0.02 0.03 0.01 0.01 0.05 0.02 0.05 0.06 0.05 0.04 0.05 0.06 0.05 0.07
0.00 0.00 0.00 0.00 0.02 0.06 0.03 0.02 0.00 0.00 0.00 0.00 0.00 0.00 0.00 0.03 0.06 0.12 0.19 0.17 0.08 0.48 0.31 0.09 0.08 0.05 0.00 0.00 0.00 0.01 0.12 0.06 0.04 0.01 0.04 0.04 0.07 0.07 0.04 0.09 0.04 0.04 0.05 0.03 0.10 0.09 0.09 0.14 0.11
0.00 0.00 0.00 0.00 0.00 0.01 0.02 0.00 0.00 0.00 0.00 0.00 0.00 0.00 0.00 0.01 0.06 0.14 0.23 0.37 0.14 0.14 0.37 0.31 0.15 0.09 0.02 0.01 0.00 0.00 0.03 0.02 0.02 0.02 0.02 0.01 0.05 0.11 0.36 0.21 0.14 0.05 0.03 0.01 0.12 0.18 0.17 0.15 0.15
0.00 0.00 0.00 0.00 0.00 0.02 0.04 0.03 0.00 0.00 0.00 0.00 0.00 0.00 0.00 0.00 0.02 0.09 0.16 0.38 0.34 0.13 0.13 0.38 0.32 0.16 0.09 0.13 0.01 0.01 0.02 0.02 0.00 0.02 0.06 0.03 0.11 0.12 1.03 0.75 0.12 0.11 0.13 0.08 0.21 0.18 0.18 0.21 0.16
0.00 0.00 0.00 0.00 0.00 0.00 0.02 0.03 0.00 0.00 0.00 0.00 0.00 0.00 0.00 0.01 0.01 0.01 0.04 0.12 0.19 0.20 0.30 0.59 0.75 0.55 0.44 0.26 0.18 0.10 0.05 0.02 0.04 0.05 0.03 0.04 0.06 0.14 0.21 0.29 0.08 0.13 0.08 0.06 0.21 0.21 0.14 0.21 0.15
0.00 0.00 0.00 0.00 0.01 0.00 0.00 0.02 0.01 0.03 0.02 0.00 0.00 0.00 0.00 0.01 0.03 0.01 0.01 0.03 0.10 0.13 0.16 1.04 1.66 0.83 0.67 0.46 0.19 0.13 0.15 0.08 0.05 0.03 0.07 0.04 0.03 0.03 0.07 0.08 0.10 0.18 0.13 0.09 0.20 0.21 0.09 0.15 0.17